NORTHEAST SUFFOLK  -  Rip Current Statement Rip Current Statement        NORTHERN NASSAU  -  Rip Current Statement Rip Current Statement        NORTHERN QUEENS  -  Rip Current Statement Rip Current Statement        NORTHWEST SUFFOLK  -  Rip Current Statement Rip Current Statement        SOUTHEAST SUFFOLK  -  Rip Current Statement Rip Current Statement        SOUTHERN NASSAU  -  Rip Current Statement Rip Current Statement        SOUTHERN QUEENS  -  Rip Current Statement Rip Current Statement        SOUTHWEST SUFFOLK  -  Rip Current Statement Rip Current Statement      

Active alerts

Northern Queens
  Details for Northern Queens Rip Current Statement
Southern Queens
  Details for Southern Queens Rip Current Statement
Northern Nassau
  Details for Northern Nassau Rip Current Statement
Southern Nassau
  Details for Southern Nassau Rip Current Statement
Northwest Suffolk
  Details for Northwest Suffolk Rip Current Statement
Southwest Suffolk
  Details for Southwest Suffolk Rip Current Statement
Northeast Suffolk
  Details for Northeast Suffolk Rip Current Statement
Southeast Suffolk
  Details for Southeast Suffolk Rip Current Statement


WXM80 ListenWXM80 Stop

You find our weather info also at:

UK Metoffice

WeatherCloud

Weather Underground

Northeastern Weather Network

AWEKAS

Citizen Weather Observer Program (CWOP)

HAMweather, WeatherForYou, PWS Weather


Weather Underground History page Text

Daily Summary for April 19, 2017 Units:  Metric    English   Both
« Previous Day
Next Day »
Daily Weekly Monthly Yearly Custom
  High: Low: Average:
Temperature: 12.1 °C 4.7 °C 8.3 °C
Dew Point: 7.9 °C 2.6 °C 4.9 °C
Humidity: 95 % 61 % 80 %
Wind Speed: 15.6 km/h 0 km/h 3.9 km/h
Wind Gust: 27.8 km/h - -
Wind:- - SE
Pressure: 1033.4 hPa 1022.6 hPa -
Precipitation: 0 mm    
Historical Graphs
 
 
Tabular Data for April 19, 2017
Time Temperature Dew Point Pressure Wind Wind Speed Wind Gust Humidity Rainfall Rate (Hourly)
00:04 7.6 °C 4.7 °C 1032.4 hPa SSE 0.6 km/h 1.9 km/h 82 % 0 mm
00:05 7.6 °C 4.7 °C 1032.4 hPa SSE 0.5 km/h 1.9 km/h 82 % 0 mm
00:10 7.6 °C 4.7 °C 1032.7 hPa Calm     82 % 0 mm
00:15 7.5 °C 4.6 °C 1032.7 hPa Calm   1.9 km/h 82 % 0 mm
00:20 7.4 °C 4.6 °C 1032.7 hPa Calm     82 % 0 mm
00:25 7.3 °C 4.4 °C 1032.7 hPa Calm   1.9 km/h 82 % 0 mm
00:30 7.3 °C 4.4 °C 1032.7 hPa Calm     82 % 0 mm
00:35 7.2 °C 4.3 °C 1033.1 hPa Calm     82 % 0 mm
00:40 7.2 °C 4.4 °C 1032.7 hPa SSE 1 km/h 1.9 km/h 83 % 0 mm
00:46 7.1 °C 4.4 °C 1032.7 hPa SSE 3.2 km/h 3.7 km/h 83 % 0 mm
00:51 6.8 °C 4.3 °C 1032.7 hPa SSE 2.4 km/h 3.7 km/h 84 % 0 mm
00:56 6.7 °C 4.2 °C 1033.1 hPa Calm   1.9 km/h 84 % 0 mm
01:01 6.7 °C 4.2 °C 1033.1 hPa SSE 0.6 km/h 1.6 km/h 84 % 0 mm
01:06 6.6 °C 4.3 °C 1033.1 hPa SSE 2.9 km/h 3.7 km/h 85 % 0 mm
01:11 6.5 °C 4.2 °C 1033.1 hPa ESE 2.4 km/h 5.6 km/h 85 % 0 mm
01:16 6.4 °C 4.1 °C 1033.1 hPa ESE 2.3 km/h 3.7 km/h 85 % 0 mm
01:21 6.3 °C 4 °C 1033.1 hPa ESE 2.3 km/h 3.7 km/h 85 % 0 mm
01:26 6.3 °C 4.2 °C 1032.7 hPa East 2.7 km/h 7.4 km/h 86 % 0 mm
01:31 6.4 °C 4.2 °C 1032.7 hPa East 2.4 km/h 5.6 km/h 86 % 0 mm
01:36 6.4 °C 4.4 °C 1033.1 hPa East 1 km/h 5.6 km/h 87 % 0 mm
01:41 6.4 °C 4.4 °C 1032.7 hPa East 3.7 km/h 5.6 km/h 87 % 0 mm
01:46 6.4 °C 4.3 °C 1032.7 hPa ESE 3.5 km/h 5.6 km/h 86 % 0 mm
01:51 6.4 °C 4.3 °C 1032.7 hPa East 3.4 km/h 5.6 km/h 86 % 0 mm
01:56 6.4 °C 4.2 °C 1032.7 hPa East 6 km/h 9.3 km/h 86 % 0 mm
02:01 6.4 °C 4.2 °C 1032.7 hPa East 0.5 km/h 3.7 km/h 86 % 0 mm
02:06 6.3 °C 4.2 °C 1032.7 hPa East 2.7 km/h 3.7 km/h 86 % 0 mm
02:11 6.3 °C 4.2 °C 1032.7 hPa ESE 0.5 km/h 3.7 km/h 86 % 0 mm
02:16 6.3 °C 3.9 °C 1032.7 hPa ESE 1.9 km/h 5.6 km/h 85 % 0 mm
02:21 6.3 °C 3.9 °C 1032.7 hPa ESE 1.3 km/h 3.7 km/h 85 % 0 mm
02:26 6.3 °C 3.9 °C 1032.7 hPa East 1.9 km/h 5.6 km/h 85 % 0 mm
02:31 6.2 °C 3.9 °C 1032.7 hPa SE 1 km/h 3.7 km/h 85 % 0 mm
02:36 6.2 °C 3.9 °C 1032.4 hPa SE 1.9 km/h 3.7 km/h 85 % 0 mm
02:41 6.2 °C 3.9 °C 1032.4 hPa SE 1.8 km/h 3.7 km/h 85 % 0 mm
02:46 6.2 °C 3.8 °C 1032.4 hPa Calm   1.6 km/h 85 % 0 mm
02:51 6.2 °C 3.7 °C 1032.4 hPa ESE 0.8 km/h 1.9 km/h 84 % 0 mm
02:57 6.2 °C 3.7 °C 1032.4 hPa SE 0.2 km/h 1.9 km/h 84 % 0 mm
03:02 6.1 °C 3.6 °C 1032.4 hPa SE 1 km/h 3.7 km/h 84 % 0 mm
03:07 6.1 °C 3.6 °C 1032.4 hPa SE 0.3 km/h 3.7 km/h 84 % 0 mm
03:12 6.1 °C 3.6 °C 1032.4 hPa SE 0.3 km/h 1.9 km/h 84 % 0 mm
03:17 6.1 °C 3.6 °C 1032.7 hPa ESE 1.3 km/h 3.2 km/h 84 % 0 mm
03:22 6 °C 3.5 °C 1032.4 hPa SE 2.4 km/h 9.3 km/h 84 % 0 mm
03:27 5.9 °C 3.4 °C 1032.4 hPa ESE 2.1 km/h 5.6 km/h 84 % 0 mm
03:32 5.9 °C 3.4 °C 1032.4 hPa SE 3.2 km/h 9.3 km/h 84 % 0 mm
03:37 5.9 °C 3.4 °C 1032.7 hPa SE 1.8 km/h 1.9 km/h 84 % 0 mm
03:42 5.8 °C 3.3 °C 1032.7 hPa Calm   3.2 km/h 84 % 0 mm
03:47 5.8 °C 3.3 °C 1032.4 hPa East 3.7 km/h 5.6 km/h 84 % 0 mm
03:52 5.8 °C 3.3 °C 1032.4 hPa Calm   4.8 km/h 84 % 0 mm
03:57 5.7 °C 3.2 °C 1032.7 hPa Calm   1.9 km/h 84 % 0 mm
04:02 5.7 °C 3.2 °C 1032.7 hPa Calm     84 % 0 mm
04:07 5.6 °C 3.1 °C 1032.7 hPa Calm   1.6 km/h 84 % 0 mm
04:12 5.6 °C 3.1 °C 1032.7 hPa Calm   1.6 km/h 84 % 0 mm
04:17 5.5 °C 3 °C 1032.7 hPa Calm   1.6 km/h 84 % 0 mm
04:22 5.5 °C 3.2 °C 1033.1 hPa Calm   3.2 km/h 85 % 0 mm
04:27 5.4 °C 2.9 °C 1033.1 hPa Calm     84 % 0 mm
04:32 5.4 °C 2.9 °C 1033.1 hPa Calm     84 % 0 mm
04:37 5.3 °C 2.8 °C 1033.1 hPa Calm     84 % 0 mm
04:42 5.3 °C 2.8 °C 1032.7 hPa East 0.2 km/h 1.9 km/h 84 % 0 mm
04:47 5.2 °C 2.8 °C 1032.7 hPa Calm     85 % 0 mm
04:52 5.1 °C 2.8 °C 1032.7 hPa Calm     85 % 0 mm
04:57 5.1 °C 2.9 °C 1032.7 hPa East 2.3 km/h 3.7 km/h 86 % 0 mm
04:58 5 °C 2.8 °C 1032.7 hPa East 2.3 km/h 3.7 km/h 86 % 0 mm
05:03 4.9 °C 2.8 °C 1032.7 hPa Calm     86 % 0 mm
05:08 4.8 °C 2.7 °C 1032.7 hPa Calm     86 % 0 mm
05:13 4.8 °C 2.6 °C 1032.7 hPa Calm   1.9 km/h 86 % 0 mm
05:18 4.7 °C 2.6 °C 1032.7 hPa Calm     86 % 0 mm
05:23 4.7 °C 2.6 °C 1032.7 hPa Calm     86 % 0 mm
05:28 4.7 °C 2.7 °C 1032.7 hPa East 0.3 km/h 1.9 km/h 87 % 0 mm
05:33 4.7 °C 2.7 °C 1032.7 hPa Calm   1.9 km/h 87 % 0 mm
05:38 4.7 °C 2.7 °C 1032.7 hPa Calm     87 % 0 mm
05:43 4.7 °C 2.7 °C 1032.7 hPa Calm   3.7 km/h 87 % 0 mm
05:48 4.8 °C 2.8 °C 1032.7 hPa East 0.2 km/h 1.9 km/h 87 % 0 mm
05:53 4.8 °C 3 °C 1033.1 hPa Calm   1.9 km/h 88 % 0 mm
05:58 4.9 °C 3.1 °C 1032.7 hPa East 1.8 km/h 3.2 km/h 88 % 0 mm
06:03 5 °C 3.2 °C 1032.7 hPa East 3.2 km/h 3.7 km/h 88 % 0 mm
06:08 5.1 °C 3.3 °C 1032.7 hPa East 1.9 km/h 5.6 km/h 88 % 0 mm
06:13 5.2 °C 3.4 °C 1032.7 hPa East 1.6 km/h 4.8 km/h 88 % 0 mm
06:18 5.3 °C 3.3 °C 1032.7 hPa East 1.1 km/h 3.2 km/h 87 % 0 mm
06:23 5.4 °C 3.4 °C 1032.7 hPa East 2.7 km/h 5.6 km/h 87 % 0 mm
06:28 5.5 °C 3.3 °C 1032.7 hPa East 3.4 km/h 5.6 km/h 86 % 0 mm
06:33 5.6 °C 3.4 °C 1032.7 hPa East 0.6 km/h 1.9 km/h 86 % 0 mm
06:38 5.7 °C 3.5 °C 1033.1 hPa East 0.6 km/h 5.6 km/h 86 % 0 mm
06:43 5.8 °C 3.6 °C 1032.7 hPa East 1.8 km/h 3.7 km/h 86 % 0 mm
06:48 5.8 °C 3.5 °C 1032.7 hPa East 4 km/h 4 km/h 85 % 0 mm
06:49 5.9 °C 3.6 °C 1032.7 hPa Calm   1.9 km/h 85 % 0 mm
06:55 5.9 °C 3.6 °C 1032.7 hPa East 2.6 km/h 3.7 km/h 85 % 0 mm
07:00 6 °C 3.7 °C 1032.7 hPa East 1.3 km/h 5.6 km/h 85 % 0 mm
07:05 6.1 °C 3.7 °C 1033.1 hPa East 0.3 km/h 1.6 km/h 85 % 0 mm
07:10 6.1 °C 3.8 °C 1033.1 hPa East 1.4 km/h 3.7 km/h 85 % 0 mm
07:15 6.2 °C 3.9 °C 1033.4 hPa East 2.1 km/h 3.7 km/h 85 % 0 mm
07:20 6.3 °C 3.8 °C 1033.1 hPa East 3.7 km/h 5.6 km/h 84 % 0 mm
07:25 6.5 °C 4 °C 1033.1 hPa East 0.5 km/h 5.6 km/h 84 % 0 mm
07:30 6.6 °C 3.9 °C 1033.4 hPa East 3.9 km/h 7.4 km/h 83 % 0 mm
07:35 6.7 °C 4.1 °C 1033.4 hPa ESE 0.6 km/h 3.7 km/h 83 % 0 mm
07:40 6.8 °C 4 °C 1033.4 hPa East 3.5 km/h 8 km/h 82 % 0 mm
07:45 7 °C 3.9 °C 1033.1 hPa ESE 4.3 km/h 7.4 km/h 81 % 0 mm
07:50 7.1 °C 4 °C 1033.1 hPa SE 1.8 km/h 4.8 km/h 81 % 0 mm
07:55 7.2 °C 3.9 °C 1033.1 hPa East 4.8 km/h 11.3 km/h 80 % 0 mm
08:00 7.3 °C 3.9 °C 1033.1 hPa SE 4.5 km/h 11.1 km/h 79 % 0 mm
08:05 7.4 °C 3.8 °C 1032.7 hPa SE 6.4 km/h 14.8 km/h 78 % 0 mm
08:10 7.6 °C 3.9 °C 1032.7 hPa ESE 6.3 km/h 13 km/h 78 % 0 mm
08:15 7.6 °C 3.8 °C 1032.7 hPa East 5.6 km/h 14.8 km/h 77 % 0 mm
08:20 7.6 °C 3.8 °C 1032.7 hPa South 5.8 km/h 13 km/h 77 % 0 mm
08:25 7.6 °C 3.8 °C 1032.7 hPa SE 3.7 km/h 8 km/h 77 % 0 mm
08:30 7.7 °C 4.1 °C 1032.7 hPa SE 4.2 km/h 7.4 km/h 78 % 0 mm
08:35 7.9 °C 4.1 °C 1032.7 hPa ESE 3.4 km/h 5.6 km/h 77 % 0 mm
08:40 8.1 °C 4.3 °C 1032.7 hPa SSE 6 km/h 9.3 km/h 77 % 0 mm
08:45 8.1 °C 3.9 °C 1032.7 hPa SSE 5.3 km/h 11.1 km/h 75 % 0 mm
08:50 8.2 °C 4.2 °C 1032.7 hPa East 3.5 km/h 7.4 km/h 76 % 0 mm
08:56 8.3 °C 4.2 °C 1032.7 hPa SSE 7.9 km/h 12.9 km/h 75 % 0 mm
09:01 8.4 °C 4.3 °C 1032.7 hPa SSE 3.9 km/h 11.1 km/h 75 % 0 mm
09:06 8.7 °C 4.5 °C 1032.4 hPa SE 6.9 km/h 12.9 km/h 75 % 0 mm
09:16 9.1 °C 4.4 °C 1032.4 hPa South 9 km/h 14.8 km/h 73 % 0 mm
09:21 9.2 °C 4.4 °C 1032.4 hPa ESE 6 km/h 9.3 km/h 72 % 0 mm
09:26 9.2 °C 4.4 °C 1032.4 hPa SE 5.8 km/h 7.4 km/h 72 % 0 mm
09:31 9.6 °C 4.6 °C 1032.4 hPa SSE 14 km/h 18.5 km/h 71 % 0 mm
09:36 9.9 °C 5.1 °C 1032.4 hPa SSE 5.5 km/h 11.1 km/h 72 % 0 mm
09:41 10.2 °C 4.8 °C 1032.4 hPa SSE 10.1 km/h 14.8 km/h 69 % 0 mm
09:46 10.1 °C 4.2 °C 1032.1 hPa SE 8.4 km/h 14.8 km/h 67 % 0 mm
09:51 9.8 °C 4.4 °C 1032.1 hPa SE 4.2 km/h 11.1 km/h 69 % 0 mm
09:56 9.9 °C 4.3 °C 1032.1 hPa SE 13.7 km/h 22.2 km/h 68 % 0 mm
10:01 9.7 °C 4.3 °C 1032.1 hPa South 6.4 km/h 11.1 km/h 69 % 0 mm
10:06 9.6 °C 3.9 °C 1032.1 hPa SE 4.5 km/h 11.1 km/h 68 % 0 mm
10:11 9.8 °C 4.6 °C 1032.4 hPa SSE 7.7 km/h 14.8 km/h 70 % 0 mm
10:16 9.8 °C 4 °C 1032.4 hPa South 8.7 km/h 18.5 km/h 67 % 0 mm
10:21 9.8 °C 4.2 °C 1032.4 hPa SE 9.7 km/h 14.8 km/h 68 % 0 mm
10:26 9.8 °C 4.6 °C 1032.4 hPa SSE 2.1 km/h 6.4 km/h 70 % 0 mm
10:31 9.8 °C 4 °C 1032.4 hPa South 5 km/h 9.3 km/h 67 % 0 mm
10:36 9.7 °C 4.1 °C 1032.1 hPa South 8.7 km/h 16.7 km/h 68 % 0 mm
10:41 9.7 °C 4.3 °C 1032.1 hPa South 4.8 km/h 9.3 km/h 69 % 0 mm
10:46 10.1 °C 4.7 °C 1032.1 hPa South 6.4 km/h 18.5 km/h 69 % 0 mm
10:51 10.2 °C 4.6 °C 1032.1 hPa SSE 10.1 km/h 14.8 km/h 68 % 0 mm
10:56 10.3 °C 4.2 °C 1032.1 hPa SSW 2.3 km/h 9.3 km/h 66 % 0 mm
11:02 10.7 °C 4.3 °C 1031.7 hPa SSE 9.2 km/h 16.7 km/h 65 % 0 mm
11:07 10.8 °C 4.9 °C 1031.7 hPa SE 6 km/h 13 km/h 67 % 0 mm
11:12 11.1 °C 4.3 °C 1031.7 hPa East 13 km/h 22.2 km/h 63 % 0 mm
11:17 11 °C 4 °C 1031.7 hPa SSE 7.2 km/h 14.8 km/h 62 % 0 mm
11:22 10.7 °C 4.2 °C 1031.7 hPa South 7.7 km/h 14.8 km/h 64 % 0 mm
11:27 11.1 °C 4.7 °C 1031.7 hPa SSW 4 km/h 11.1 km/h 65 % 0 mm
11:32 11.3 °C 4.6 °C 1031.7 hPa South 9.8 km/h 18.5 km/h 63 % 0 mm
11:42 11.9 °C 5.3 °C 1031.4 hPa SSE 15.6 km/h 27.8 km/h 64 % 0 mm
11:47 11.9 °C 4.9 °C 1031.7 hPa SSE 4.8 km/h 8 km/h 62 % 0 mm
11:52 11.8 °C 4.8 °C 1031.7 hPa SSW 6 km/h 9.7 km/h 62 % 0 mm
11:57 11.5 °C 4.2 °C 1031.4 hPa SSW 4.3 km/h 11.1 km/h 61 % 0 mm
12:02 11.1 °C 4.3 °C 1031.4 hPa ESE 8 km/h 14.8 km/h 63 % 0 mm
12:07 10.9 °C 4.6 °C 1031 hPa SSW 1.9 km/h 7.4 km/h 65 % 0 mm
12:12 10.7 °C 3.9 °C 1031 hPa South 9 km/h 18.5 km/h 63 % 0 mm
12:17 10.3 °C 4.3 °C 1031 hPa South 6.1 km/h 11.1 km/h 66 % 0 mm
12:22 10.6 °C 4.9 °C 1031 hPa South 3.2 km/h 14.5 km/h 68 % 0 mm
12:27 10.6 °C 4.4 °C 1031 hPa South 8 km/h 19.3 km/h 66 % 0 mm
12:29 10.6 °C 4.4 °C 1030.7 hPa South 2.9 km/h 9.3 km/h 66 % 0 mm
12:34 10.3 °C 3.8 °C 1030.7 hPa SE 7.9 km/h 18.5 km/h 64 % 0 mm
12:39 10.2 °C 3.9 °C 1030.7 hPa SSW 7.9 km/h 18.5 km/h 65 % 0 mm
12:44 10.2 °C 4.7 °C 1030.7 hPa South 5.3 km/h 14.8 km/h 69 % 0 mm
12:49 10.3 °C 4.6 °C 1030.7 hPa SE 7.7 km/h 16.1 km/h 68 % 0 mm
12:54 10.3 °C 4.4 °C 1030.7 hPa SE 5.5 km/h 11.1 km/h 67 % 0 mm
12:59 10.4 °C 4.5 °C 1030.4 hPa SSE 9.5 km/h 16.7 km/h 67 % 0 mm
13:04 10.3 °C 4.9 °C 1030.7 hPa SSE 2.9 km/h 13 km/h 69 % 0 mm
13:09 10.6 °C 5.5 °C 1030.4 hPa South 3.7 km/h 7.4 km/h 71 % 0 mm
13:14 10.8 °C 4.9 °C 1030 hPa SE 10.6 km/h 16.7 km/h 67 % 0 mm
13:19 10.8 °C 4.7 °C 1030 hPa SE 9.2 km/h 14.5 km/h 66 % 0 mm
13:24 10.8 °C 5.1 °C 1030 hPa SSE 11.4 km/h 20.4 km/h 68 % 0 mm
13:29 10.8 °C 4.7 °C 1029.7 hPa SSE 12.4 km/h 18.5 km/h 66 % 0 mm
13:34 10.6 °C 4.7 °C 1029.7 hPa ESE 13.7 km/h 25.9 km/h 67 % 0 mm
13:39 10.6 °C 4.7 °C 1029.7 hPa SSE 11.9 km/h 24.1 km/h 67 % 0 mm
13:44 10.6 °C 5.4 °C 1029.7 hPa SSE 6.1 km/h 8 km/h 70 % 0 mm
13:49 10.8 °C 5.3 °C 1029.7 hPa SE 9.8 km/h 18.5 km/h 69 % 0 mm
13:54 10.9 °C 5.3 °C 1029.7 hPa SSE 3.9 km/h 9.3 km/h 68 % 0 mm
13:59 11 °C 5.1 °C 1029.7 hPa South 6.9 km/h 11.1 km/h 67 % 0 mm
14:05 11.1 °C 5.6 °C 1029.7 hPa SSW 11.1 km/h 16.1 km/h 69 % 0 mm
14:09 11.2 °C 5.5 °C 1029.3 hPa SSE 7.6 km/h 16.7 km/h 68 % 0 mm
14:15 11.2 °C 5.3 °C 1029 hPa East 10.5 km/h 17.7 km/h 67 % 0 mm
14:25 11.3 °C 5.4 °C 1029 hPa SE 4.8 km/h 9.3 km/h 67 % 0 mm
14:30 11.4 °C 5.7 °C 1029 hPa SSE 9.2 km/h 16.1 km/h 68 % 0 mm
14:35 11.8 °C 5.6 °C 1029 hPa South 6.1 km/h 13 km/h 66 % 0 mm
14:40 11.9 °C 5.8 °C 1028.7 hPa South 9.8 km/h 11.1 km/h 66 % 0 mm
14:45 11.7 °C 5.5 °C 1028.7 hPa SSE 3.4 km/h 11.1 km/h 66 % 0 mm
14:50 11.8 °C 6.1 °C 1028.7 hPa SSE 12.1 km/h 20.9 km/h 68 % 0 mm
14:55 12 °C 5.8 °C 1028.3 hPa South 9.5 km/h 14.8 km/h 66 % 0 mm
15:00 12 °C 5.6 °C 1028 hPa SSE 4.3 km/h 8 km/h 65 % 0 mm
15:02 12 °C 5.6 °C 1028 hPa SSW 4.5 km/h 11.1 km/h 65 % 0 mm
15:07 12.1 °C 5.7 °C 1028.3 hPa SSE 4.2 km/h 13 km/h 65 % 0 mm
15:12 12.1 °C 5.4 °C 1028 hPa SSE 10 km/h 11.1 km/h 64 % 0 mm
15:17 11.9 °C 5.1 °C 1028.3 hPa South 8.4 km/h 16.7 km/h 63 % 0 mm
15:22 11.8 °C 5.2 °C 1028.3 hPa SSW 6 km/h 11.3 km/h 64 % 0 mm
15:27 11.9 °C 5.5 °C 1028 hPa South 8.7 km/h 16.7 km/h 65 % 0 mm
15:32 11.8 °C 5.4 °C 1028 hPa SSE 6 km/h 13 km/h 65 % 0 mm
15:37 11.4 °C 5.1 °C 1027.7 hPa SSE 10.8 km/h 13 km/h 65 % 0 mm
15:42 11.3 °C 5.2 °C 1027.7 hPa SSW 3.4 km/h 11.3 km/h 66 % 0 mm
15:47 11.3 °C 5.2 °C 1027.7 hPa SSW 4.8 km/h 18.5 km/h 66 % 0 mm
15:52 11.2 °C 5.3 °C 1027.7 hPa SSW 2.4 km/h 3.7 km/h 67 % 0 mm
15:57 11.1 °C 5.2 °C 1027.7 hPa SE 5.3 km/h 14.5 km/h 67 % 0 mm
16:02 10.8 °C 5.2 °C 1027.7 hPa SSW 4.8 km/h 16.7 km/h 68 % 0 mm
16:07 10.8 °C 5.3 °C 1027.3 hPa SSE 4.8 km/h 16.1 km/h 69 % 0 mm
16:12 10.8 °C 5.5 °C 1027 hPa SE 11.3 km/h 19.3 km/h 70 % 0 mm
16:17 10.7 °C 5.4 °C 1027.3 hPa SSE 3.2 km/h 20.9 km/h 70 % 0 mm
16:22 10.7 °C 5.4 °C 1027.3 hPa SSE 12.9 km/h 20.9 km/h 70 % 0 mm
16:27 10.6 °C 5.1 °C 1027.3 hPa SSE 8 km/h 16.1 km/h 69 % 0 mm
16:32 10.5 °C 5.2 °C 1027.3 hPa South 9.7 km/h 14.5 km/h 70 % 0 mm
16:37 10.3 °C 5.3 °C 1027.3 hPa SSE 3.2 km/h 9.7 km/h 71 % 0 mm
16:42 10.3 °C 5.1 °C 1027.3 hPa South 3.2 km/h 12.9 km/h 70 % 0 mm
16:47 10.3 °C 5.1 °C 1027.3 hPa South 3.2 km/h 9.7 km/h 70 % 0 mm
16:52 10.3 °C 5.1 °C 1027.3 hPa SSE 3.2 km/h 16.1 km/h 70 % 0 mm
16:57 10.2 °C 5 °C 1027.3 hPa SE 7.1 km/h 18.5 km/h 70 % 0 mm
17:02 10.1 °C 5.1 °C 1027.3 hPa SE 4.2 km/h 9.3 km/h 71 % 0 mm
17:07 9.9 °C 4.9 °C 1027 hPa SSE 9.2 km/h 14.8 km/h 71 % 0 mm
17:12 9.7 °C 4.9 °C 1027 hPa SSW 5.3 km/h 11.1 km/h 72 % 0 mm
17:17 9.7 °C 5.1 °C 1027 hPa ESE 6.9 km/h 11.1 km/h 73 % 0 mm
17:22 9.5 °C 5.1 °C 1027 hPa SE 6.6 km/h 9.3 km/h 74 % 0 mm
17:27 9.4 °C 5.1 °C 1027 hPa SSE 8.9 km/h 13 km/h 74 % 0 mm
17:32 9.3 °C 5.1 °C 1027 hPa SSE 4.3 km/h 9.3 km/h 75 % 0 mm
17:37 9.3 °C 5.1 °C 1027.3 hPa SSE 5.5 km/h 9.7 km/h 75 % 0 mm
17:42 9.3 °C 5.3 °C 1027 hPa SSE 8.5 km/h 12.9 km/h 76 % 0 mm
17:47 9.2 °C 5.6 °C 1027 hPa SE 3.2 km/h 8 km/h 78 % 0 mm
17:52 9.2 °C 5.6 °C 1027.3 hPa SSE 5.1 km/h 11.1 km/h 78 % 0 mm
17:57 9.1 °C 5.7 °C 1027.3 hPa SE 4.3 km/h 11.1 km/h 79 % 0 mm
18:02 9 °C 5.7 °C 1027.3 hPa SSE 7.2 km/h 8 km/h 80 % 0 mm
18:07 8.8 °C 5.7 °C 1027.3 hPa SE 6.1 km/h 9.3 km/h 81 % 0 mm
18:12 8.8 °C 6.1 °C 1027 hPa SE 5.6 km/h 9.3 km/h 83 % 0 mm
18:17 8.6 °C 5.9 °C 1027 hPa SE 4.5 km/h 8 km/h 83 % 0.25 mm
18:22 8.6 °C 6 °C 1027 hPa SSE 6.4 km/h 13 km/h 84 % 0.25 mm
18:27 8.4 °C 5.9 °C 1026.6 hPa SE 4 km/h 5.6 km/h 84 % 0.25 mm
18:32 8.4 °C 6 °C 1026.3 hPa SSE 3.7 km/h 9.3 km/h 85 % 0.25 mm
18:37 8.3 °C 5.9 °C 1026.3 hPa SE 2.9 km/h 9.3 km/h 85 % 0.25 mm
18:42 8.3 °C 5.9 °C 1026.3 hPa SE 3.4 km/h 5.6 km/h 85 % 0.25 mm
18:48 8.3 °C 5.9 °C 1026.3 hPa SSE 2.9 km/h 5.6 km/h 85 % 0.25 mm
18:53 8.3 °C 6.1 °C 1026.3 hPa SSE 5 km/h 8 km/h 86 % 0.25 mm
18:58 8.2 °C 6 °C 1026 hPa South 9 km/h 16.7 km/h 86 % 0.51 mm
19:03 8.1 °C 6.1 °C 1025.6 hPa SSE 8.5 km/h 13 km/h 87 % 0.51 mm
19:13 7.9 °C 6.1 °C 1025.6 hPa East 9.2 km/h 9.3 km/h 88 % 0.76 mm
19:18 7.9 °C 6.2 °C 1025.3 hPa SSE 4.2 km/h 9.3 km/h 89 % 0.51 mm
19:23 7.9 °C 6.2 °C 1025.3 hPa SE 9.8 km/h 16.7 km/h 89 % 0.51 mm
19:28 7.9 °C 6.2 °C 1025.3 hPa South 2.7 km/h 13 km/h 89 % 0.51 mm
19:33 7.9 °C 6.3 °C 1025.6 hPa ESE 1.6 km/h 11.1 km/h 90 % 0.76 mm
19:38 7.9 °C 6.3 °C 1025.3 hPa SSE 6.6 km/h 16.7 km/h 90 % 0.76 mm
19:43 7.9 °C 6.3 °C 1025.6 hPa SSE 2.9 km/h 6.4 km/h 90 % 1.02 mm
19:48 7.9 °C 6.3 °C 1025.6 hPa SSE 7.9 km/h 11.1 km/h 90 % 1.02 mm
19:53 7.8 °C 6.3 °C 1025.6 hPa SSE 3.4 km/h 13 km/h 90 % 1.02 mm
19:58 7.8 °C 6.3 °C 1025.3 hPa SE 5.6 km/h 9.3 km/h 90 % 0.76 mm
20:03 7.9 °C 6.5 °C 1025.3 hPa SSE 1.3 km/h 5.6 km/h 91 % 0.76 mm
20:08 7.9 °C 6.5 °C 1025.3 hPa SSE 2.3 km/h 5.6 km/h 91 % 0.51 mm
20:13 7.9 °C 6.5 °C 1025.3 hPa South 2.3 km/h 5.6 km/h 91 % 0.51 mm
20:19 7.9 °C 6.5 °C 1025.3 hPa SSW 1.1 km/h 3.7 km/h 91 % 0.76 mm
20:23 7.9 °C 6.5 °C 1024.9 hPa South 0.6 km/h 3.7 km/h 91 % 0.76 mm
20:29 7.9 °C 6.5 °C 1024.6 hPa SSE 2.4 km/h 9.3 km/h 91 % 0.76 mm
20:34 7.9 °C 6.5 °C 1024.6 hPa SSE 4 km/h 7.4 km/h 91 % 0.51 mm
20:39 7.9 °C 6.5 °C 1024.9 hPa Calm     91 % 0.51 mm
20:44 7.9 °C 6.6 °C 1024.9 hPa Calm     91 % 0.25 mm
20:49 7.9 °C 6.6 °C 1024.9 hPa SSE 1.3 km/h 5.6 km/h 91 % 0.25 mm
20:54 8 °C 6.8 °C 1024.9 hPa SE 2.1 km/h 5.6 km/h 92 % 0.25 mm
20:59 8 °C 6.8 °C 1024.9 hPa SE 3.4 km/h 8 km/h 92 % 0.25 mm
21:04 8.1 °C 6.8 °C 1024.9 hPa SSE 1.9 km/h 3.7 km/h 92 % 0.25 mm
21:09 8.1 °C 6.8 °C 1024.9 hPa SE 2.3 km/h 5.6 km/h 92 % 0.25 mm
21:14 8.1 °C 6.8 °C 1024.9 hPa SE 0.5 km/h 7.4 km/h 92 % 0.25 mm
21:19 8.1 °C 6.9 °C 1024.9 hPa Calm   3.7 km/h 92 % 0 mm
21:24 8.1 °C 6.9 °C 1024.9 hPa Calm     92 % 0.51 mm
21:29 8.2 °C 7.1 °C 1024.9 hPa SE 0.6 km/h 3.7 km/h 93 % 1.02 mm
21:34 8.2 °C 7.1 °C 1024.9 hPa SE 1.9 km/h 4.8 km/h 93 % 1.52 mm
21:39 8.2 °C 7.1 °C 1024.9 hPa SE 1.3 km/h 4.8 km/h 93 % 1.78 mm
21:44 8.2 °C 7.1 °C 1024.6 hPa SSE 2.1 km/h 5.6 km/h 93 % 2.03 mm
21:49 8.2 °C 7.1 °C 1024.6 hPa SE 2.1 km/h 3.7 km/h 93 % 2.03 mm
21:54 8.2 °C 7.1 °C 1024.3 hPa SSE 3.2 km/h 9.3 km/h 93 % 2.03 mm
21:59 8.2 °C 7.1 °C 1023.9 hPa South 6.6 km/h 9.3 km/h 93 % 2.03 mm
22:04 8.2 °C 7.1 °C 1023.9 hPa SSW 1.9 km/h 7.4 km/h 93 % 2.03 mm
22:09 8.2 °C 7.3 °C 1023.9 hPa SE 1 km/h 3.7 km/h 94 % 2.03 mm
22:14 8.2 °C 7.3 °C 1023.6 hPa SSE 0.8 km/h 5.6 km/h 94 % 2.03 mm
22:19 8.2 °C 7.3 °C 1023.6 hPa SSE 0.6 km/h 3.7 km/h 94 % 2.03 mm
22:24 8.2 °C 7.3 °C 1023.6 hPa SE 0.8 km/h 5.6 km/h 94 % 1.52 mm
22:29 8.2 °C 7.3 °C 1023.6 hPa South 2.4 km/h 5.6 km/h 94 % 1.02 mm
22:34 8.2 °C 7.3 °C 1023.6 hPa SE 1.3 km/h 5.6 km/h 94 % 0.51 mm
22:39 8.2 °C 7.3 °C 1023.6 hPa SE 1 km/h 3.7 km/h 94 % 0.25 mm
22:44 8.3 °C 7.4 °C 1023.6 hPa SE 3.4 km/h 5.6 km/h 94 % 0 mm
22:49 8.3 °C 7.4 °C 1023.6 hPa SSE 1.8 km/h 5.6 km/h 94 % 0 mm
22:54 8.3 °C 7.4 °C 1023.6 hPa Calm   1.6 km/h 94 % 0 mm
22:59 8.3 °C 7.6 °C 1023.2 hPa SSE 0.3 km/h 5.6 km/h 95 % 0 mm
23:04 8.4 °C 7.5 °C 1023.2 hPa SSE 0.3 km/h 9.3 km/h 94 % 0 mm
23:09 8.4 °C 7.6 °C 1023.2 hPa Calm   1.9 km/h 95 % 0 mm
23:14 8.4 °C 7.7 °C 1022.9 hPa SSE 0.8 km/h 3.7 km/h 95 % 0 mm
23:19 8.4 °C 7.7 °C 1022.6 hPa South 0.6 km/h 3.7 km/h 95 % 0 mm
23:24 8.4 °C 7.7 °C 1022.6 hPa South 1.4 km/h 5.6 km/h 95 % 0 mm
23:29 8.5 °C 7.7 °C 1022.6 hPa South 1.6 km/h 3.7 km/h 95 % 0 mm
23:34 8.5 °C 7.7 °C 1022.9 hPa South 0.2 km/h 1.6 km/h 95 % 0 mm
23:39 8.6 °C 7.8 °C 1022.9 hPa Calm     95 % 0 mm
23:44 8.6 °C 7.8 °C 1022.9 hPa Calm     95 % 0 mm
23:49 8.6 °C 7.8 °C 1022.9 hPa South 0.3 km/h 1.9 km/h 95 % 0 mm
23:54 8.6 °C 7.8 °C 1022.9 hPa Calm     95 % 0 mm
23:59 8.7 °C 7.9 °C 1022.9 hPa Calm     95 % 0 mm
Crab Meadow Weather
Compliments of Weather Underground - 3 mb

Script developed by  Jim McMurry - jmcmurry@mwt.net Adapted for the template by  Wim van der Kuil - Leuven-Template.eu

Weather Terms: Heavy Sleet Warning - Accumulations of 1/2 inch or more of sleet.